CAPE
0 0 0 0 0 0 0 0 0 0 0 0 0 0 0 0 0 0 0 0 0 0 0 0 0 0 0 0 0 0 0 0
0 0 0 0 0 0 0 0 0 0 0 0 0 0 0 0 0 0 0 0 0 0 0 0 0 0 0 0 0 0 0 0
0 0 0 0 0 0 0 0 0 0 0 0 0 0 0 0 0 0 0 0 0 0 0 0 0 0 0 0 0 0 0 0
0 0 0 0 0 0 0 0 0 0 0 0 0 0 0 0 0 0 0 0 0 0 0 0 0 0 0 0 0 0 0 0
0 0 0 0 0 0 0 0 0 0 0 0 0 0 0 0 0 0 0 0 0 0 0 0 0 0 0 0 0 0 0 0
0 0 0 0 0 0 0 0 0 0 0 0 0 0 0 0 0 0 0 0 0 0 0 0 0 0 0 0 0 0 0 0
0 0 0 0 0 0 0 0 0 0 0 0 0 0 0 0 0 0 0 0 0 0 0 0 0 0 0 0 0 0 0 1
0 0 0 0 0 0 0 0 0 0 0 0 0 0 0 0 0 0 0 0 0 0 0 0 0 0 0 0 0 0 0 0
0 0 0 0 0 0 0 0 0 0 0 0 0 0 0 0 0 0 0 0 0 0 0 0 0 0 0 0 0 0 0 0
0 0 0 0 0 0 0 0 0 0 0 0 0 0 0 0 0 0 0 0 0 0 0 0 0 0 0 0 0 0 0 0
0 0 0 0 0 0 0 0 0 0 0 0 0 0 0 0 0 0 0 0 0 0 0 0 0 0 0 0 0 0 0 0
0 0 0 0 0 0 0 0 0 0 0 0 0 0 0 0 0 0 0 0 0 0 0 0 0 0 0 0 0 0 0 0
0 0 0 0 0 0 0 0 0 0 0 0 0 0 0 0 0 0 0 0 0 0 0 0 0 0 0 0 0 0 0 0
0 0 0 0 0 0 0 0 0 0 0 0 0 0 0 0 0 1 1 0 0 0 0 0 0 0 0 0 0 0 0 1
0 0 0 0 0 0 0 0 0 0 0 0 0 0 0 0 0 0 0 0 0 0 0 0 0 0 0 0 0 0 0 0
0 0 0 0 0 0 0 0 0 0 0 0 0 0 0 0 0 0 0 0 0 0 0 2 0 2 0 0 0 0 0 0
0 0 0 0 0 0 0 0 0 0 0 0 0 0 0 0 0 0 0 0 0 0 0 0 0 0 0 0 0 0 0 0
0 0 0 0 0 0 0 0 0 0 0 0 0 0 0 0 0 0 0 0 0 0 0 0 0 0 0 0 0 0 0 0
0 0 0 0 0 0 0 0 0 0 0 0 0 0 0 0 0 0 0 0 0 0 0 0 0 0 0 0 0 0 0 0
CIN
-0 -0 -0 -0 -0 -0 -0 -0 -0 -0 -0 -0 -0 -0 -0 -0 -0 -0 -0 -0 -0 -0 -0 -0 -0 -0 -0 -0 -0 -0 -0 -0
-0 -0 -0 -0 -0 -0 -0 -0 -0 -0 -0 -0 -0 -0 -0 -0 -0 -0 -0 -0 -0 -0 -0 -0 -0 -0 -0 -0 -0 -0 -0 -0
-0 -0 -0 -0 -0 -0 -0 -0 -0 -0 -0 -0 -0 -0 -0 -0 -0 -0 -0 -0 -0 -0 -0 -0 -0 -0 -0 -0 -0 -0 -0 -0
-0 -0 -0 -0 -0 -0 -0 -0 -0 -0 -0 -0 -0 -0 -0 -0 -0 -0 -0 -0 -0 -0 -0 -0 -0 -0 -0 -0 -0 -0 -0 -0
-0 -0 -0 -0 -0 -0 -0 -0 -0 -0 -0 -0 -0 -0 -0 -0 -0 -0 -0 -0 -0 -0 -0 -0 -0 -0 -0 -0 -0 -0 -0 -0
-0 -0 -0 -0 -0 -0 -0 -0 -0 -0 -0 -0 -0 -0 -0 -0 -0 -0 -0 -0 -0 -0 -0 -0 -0 -0 -0 -0 -0 -0 -0 -0
-0 -0 -0 -0 -0 -0 -0 -0 -0 -0 -0 -0 -0 -0 -0 -0 -0 -0 -0 -0 -0 -0 -0 -0 -0 -0 -0 -0 -0 -0 -0 -0
-0 -0 -0 -0 -0 -0 -0 -0 -0 -0 -0 -0 -0 -0 -0 -0 -0 -0 -0 -0 -0 -0 -0 -0 -0 -0 -0 -0 -0 -0 -0 -1
-0 -0 -0 -0 -0 -0 -0 -0 -0 -0 -0 -0 -0 -0 -0 -0 -0 -0 -0 -0 -0 -0 -0 -0 -0 -0 -0 -0 -0 -0 -0 -0
-0 -0 -0 -0 -0 -0 -0 -0 -0 -0 -0 -0 -0 -0 -0 -0 -0 -0 -0 -0 -0 -0 -0 -0 -0 -0 -0 -0 -0 -0 -0 -0
-0 -0 -0 -0 -0 -0 -0 -0 -0 -0 -0 -0 -0 -0 -0 -0 -0 -0 -0 -0 -0 -0 -0 -0 -0 -0 -0 -0 -0 -0 -0 -0
-0 -0 -0 -0 -0 -0 -0 -0 -0 -0 -0 -0 -0 -0 -0 -0 -0 -0 -0 -0 -0 -0 -0 -0 -0 -0 -0 -0 -0 -0 -0 -0
-0 -0 -0 -0 -0 -0 -0 -0 -0 -0 -0 -0 -0 -0 -0 -0 -0 -0 -0 -0 -0 -0 -0 -0 -0 -0 -0 -0 -0 -0 -0 -0
-0 -0 -0 -0 -0 -0 -0 -0 -0 -0 -0 -0 -0 -0 -0 -0 -0 -0 -0 -0 -0 -0 -0 -0 -0 -0 -0 -0 -0 -0 -0 -0
-0 -0 -0 -0 -0 -0 -0 -0 -0 -0 -0 -0 -0 -0 -0 -0 -0 -0 -0 -0 -0 -0 -0 -0 -0 -0 -0 -0 -0 -0 -0 -0
-0 -0 -0 -0 -0 -0 -0 -0 -0 -0 -0 -0 -0 -0 -0 -0 -0 -0 -0 -0 -0 -0 -0 -0 -0 -0 -0 -0 -0 -0 -0 -0
-0 -0 -0 -0 -0 -0 -0 -0 -0 -0 -0 -0 -0 -0 -0 -0 -0 -0 -0 -0 -0 -0 -0 -0 -0 -0 -0 -0 -0 -0 -0 -0
-0 -0 -0 -0 -0 -0 -0 -0 -0 -0 -0 -0 -0 -0 -0 -0 -0 -0 -0 -0 -0 -0 -0 -0 -0 -0 -0 -0 -0 -0 -0 -0
-0 -0 -0 -0 -0 -0 -0 -0 -0 -0 -0 -0 -0 -0 -0 -0 -0 -0 -0 -0 -0 -0 -0 -0 -0 -0 -0 -0 -0 -0 -0 -0
Wind_Speed
7 6 7 8 9 10 11 12 13 14 15 16 16 18 18 19 21 22 24 25 26 26 26 28 28 29 31 33 35 35 35 39
8 8 9 9 11 11 13 13 14 15 16 17 17 18 18 19 21 23 24 25 26 26 26 28 28 29 32 33 33 35 35 39
11 10 9 10 10 11 12 13 15 17 17 16 17 17 18 19 21 22 24 24 25 26 27 27 28 28 30 32 33 34 33 37
14 12 12 11 11 11 12 13 14 15 14 14 15 17 18 20 22 22 23 24 24 26 26 26 27 27 28 30 31 33 34 34
13 11 10 9 9 9 10 11 12 13 14 15 17 19 20 19 20 20 21 23 24 25 25 26 26 27 28 29 30 31 32 33
12 11 8 7 7 8 9 10 13 13 14 15 16 17 17 17 17 18 20 22 24 25 26 27 27 27 28 28 29 30 29 30
10 7 5 6 6 6 7 9 12 14 16 16 16 15 15 17 18 19 20 21 23 25 26 26 26 26 27 27 27 28 28 29
7 5 5 3 4 5 7 8 11 13 14 14 14 15 15 16 17 19 20 22 24 25 25 25 25 25 25 25 26 26 27 28
3 2 2 3 3 3 5 7 10 11 12 13 13 14 15 16 17 19 20 22 22 23 23 23 24 24 24 25 25 26 26 27
1 1 2 2 2 3 6 7 8 9 11 12 13 14 15 16 17 19 20 20 20 21 22 22 23 24 24 24 25 25 26 26
4 1 2 2 2 3 5 6 6 8 9 11 12 14 15 15 17 18 18 18 19 20 20 21 22 23 24 24 24 25 25 26
5 4 4 4 4 4 4 5 5 7 9 10 12 13 14 16 16 16 17 17 18 19 20 21 22 22 23 23 24 24 25 26
6 6 6 6 6 5 5 5 5 7 8 9 11 13 15 15 15 15 15 16 17 18 19 20 20 21 22 23 23 24 25 26
9 9 10 9 9 9 7 7 6 5 7 8 10 12 13 13 13 13 13 14 16 17 18 18 19 21 21 22 22 23 24 25
11 11 12 12 13 11 10 9 7 6 5 6 8 10 10 10 11 11 12 13 14 15 16 17 18 19 20 21 22 22 24 25
16 14 13 12 13 12 12 11 8 6 5 4 5 6 8 9 9 10 11 12 13 13 15 16 17 18 19 19 21 22 23 24
14 15 15 14 14 13 10 8 6 5 4 4 2 4 6 7 8 8 9 10 11 12 13 15 16 17 18 19 19 21 23 24
16 12 11 10 10 10 9 7 5 4 3 2 2 3 5 6 6 7 8 10 10 12 12 13 15 16 18 18 19 20 22 23
16 9 6 5 5 7 7 6 6 5 4 2 1 3 5 4 4 6 7 9 10 11 12 12 14 15 16 17 18 19 21 23
Wind_Direction
271 278 294 304 311 320 327 330 333 335 337 338 340 342 347 350 350 350 349 348 346 344 343 342 342 341 340 338 335 335 333 328
269 273 284 294 303 310 317 321 325 328 330 331 333 336 342 344 346 346 346 344 344 344 343 342 342 341 339 339 338 336 336 336
274 275 280 290 301 309 314 317 319 321 325 331 333 337 342 343 344 346 345 345 346 344 343 344 343 343 345 343 342 340 340 340
276 275 280 287 294 303 311 317 321 325 329 333 336 336 335 335 338 340 344 346 348 346 347 348 347 348 346 345 344 343 341 343
278 273 275 278 291 304 312 320 325 328 328 327 326 326 326 335 338 343 346 349 348 349 350 349 348 346 345 343 343 343 344 341
283 279 273 281 291 302 314 319 323 326 330 333 333 335 340 340 345 345 348 351 350 350 348 346 344 345 344 345 346 346 347 348
293 285 278 285 294 307 317 323 327 329 330 332 335 334 334 336 340 346 349 351 349 347 347 347 349 350 350 349 348 351 352 352
298 268 261 258 277 297 313 320 326 333 333 339 336 339 343 346 348 349 349 349 344 345 349 351 353 354 353 353 353 353 354 354
291 227 250 263 273 293 315 325 331 341 343 345 346 346 348 351 350 347 347 347 348 350 356 356 358 357 357 357 358 359 359 358
310 267 251 260 252 292 310 324 331 343 345 347 350 350 349 348 346 346 348 351 355 356 359 1 0 0 360 1 3 4 4 3
308 273 251 238 242 298 317 325 333 342 347 352 352 349 349 350 349 350 353 355 357 360 1 2 2 4 6 8 7 8 9 9
287 277 254 248 270 289 300 313 326 340 344 345 349 347 346 347 351 354 352 356 359 1 1 3 6 9 10 14 12 11 14 13
270 276 260 257 248 273 278 295 308 325 336 346 349 345 341 344 353 354 357 358 1 359 3 10 13 15 17 19 23 21 19 16
264 263 260 251 252 268 271 281 294 305 322 336 345 346 347 350 355 2 2 1 357 3 11 17 19 22 24 25 26 26 24 21
281 262 261 249 254 264 267 278 286 289 305 324 336 344 356 3 5 5 3 2 7 14 20 25 26 27 28 29 28 26 24 22
276 268 253 250 250 262 267 271 270 271 281 311 327 352 9 10 5 2 4 10 17 29 32 31 34 30 27 33 29 25 23 20
285 266 257 255 252 250 250 248 247 232 249 293 338 357 8 355 355 0 7 18 30 39 37 41 38 29 25 24 25 24 19 16
304 285 269 258 240 224 215 208 196 211 255 270 312 349 333 334 355 14 31 41 43 45 45 44 37 31 24 24 20 20 16 14
309 307 289 270 223 192 192 197 202 222 224 249 273 303 311 343 32 43 46 53 53 50 47 43 35 28 27 25 19 18 15 12